SCP
0 0 0 0 0 0 0 0 0 0 0 0 0 0 0 0 0 0 0 0 0 0 0 0 0 0 0 0 0 0 0 0 0 0 0 0 0 0
0 0 0 0 0 0 0 0 0 0 0 0 0 0 0 0 0 0 0 0 0 0 0 0 0 0 0 0 0 0 0 0 0 0 0 0 0 0
0 0 0 0 0 0 0 0 0 0 0 0 0 0 0 0 0 0 0 0 0 0 0 0 0 0 0 0 0 0 0 0 0 0 0 0 0 0
0 0 0 0 0 0 0 0 0 0 0 0 0 0 0 0 0 0 0 0 0 0 0 0 0 0 0 0 0 0 0 0 0 0 0 0 0 0
0 0 0 0 0 0 0 0 0 0 0 0 0 0 0 0 0 0 0 0 0 0 0 0 0 0 0 0 0 0 0 0 0 0 0 0 0 0
0 0 0 0 0 0 0 0 0 0 0 0 0 0 0 0 0 0 0 0 0 0 0 0 0 0 0 0 0 0 0 0 0 0 0 0 0 0
0 0 0 0 0 0 0 0 0 0 0 0 0 0 0 0 0 0 0 0 0 0 0 0 0 0 0 0 0 0 0 0 0 0 0 0 0 0
0 0 0 0 0 0 0 0 0 0 0 0 0 0 0 0 0 0 0 0 0 0 0 0 0 0 0 0 0 0 0 0 0 0 0 0 0 0
0 0 0 0 0 0 0 0 0 0 0 0 0 0 0 0 0 0 0 0 0 0 0 0 0 0 0 0 0 0 0 0 0 0 0 0 0 0
0 0 0 0 0 0 0 0 0 0 0 0 0 0 0 0 0 0 0 0 0 0 0 0 0 0 0 0 0 0 0 0 0 0 0 0 0 0
0 0 0 0 0 0 0 0 0 0 0 0 0 0 0 0 0 0 0 0 0 0 0 0 0 0 0 0 0 0 0 0 0 0 0 0 0 0
0 0 0 0 0 0 0 0 0 0 0 0 0 0 0 0 0 0 0 0 0 0 0 0 0 0 0 0 0 0 0 0 0 0 0 0 0 0
0 0 0 0 0 0 0 0 0 0 0 0 0 0 0 0 0 0 0 0 0 0 0 0 0 0 0 0 0 0 0 0 0 0 0 0 0 0
0 0 0 0 0 0 0 0 0 0 0 0 0 0 0 0 0 0 0 0 0 0 0 0 0 0 0 0 0 0 0 0 0 0 0 0 0 0
0 0 0 0 0 0 0 0 0 0 0 0 0 0 0 0 0 0 0 0 0 0 0 0 0 0 0 0 0 0 0 0 0 0 0 0 0 0
0 0 0 0 0 0 0 0 0 0 0 0 0 0 0 0 0 0 0 0 0 0 0 0 0 0 0 0 0 0 0 0 0 0 0 0 0 0
0 0 0 0 0 0 0 0 0 0 0 0 0 0 0 0 0 0 0 0 0 0 0 0 0 0 0 0 0 0 0 0 0 0 0 0 0 0
0 0 0 0 0 0 0 0 0 0 0 0 0 0 0 0 0 0 0 0 0 0 0 0 0 0 0 0 0 0 0 0 0 0 0 0 0 0
0 0 0 0 0 0 0 0 0 0 0 0 0 0 0 0 0 0 0 0 0 0 0 0 0 0 0 0 0 0 0 0 0 0 0 0 0 0
0 0 0 0 0 0 0 0 0 0 0 0 0 0 0 0 0 0 0 0 0 0 0 0 0 0 0 0 0 0 0 0 0 0 0 0 0 0
0 0 0 0 0 0 0 0 0 0 0 0 0 0 0 0 0 0 0 0 0 0 0 0 0 0 0 0 0 0 0 0 0 0 0 0 0 0
0 0 0 0 0 0 0 0 0 0 0 0 0 0 0 0 0 0 0 0 0 0 0 0 0 0 0 0 0 0 0 0 0 0 0 0 0 0
0 0 0 0 0 0 0 0 0 0 0 0 0 0 0 0 0 0 0 0 0 0 0 0 0 0 0 0 0 0 0 0 0 0 0 0 0 0
Wind_Speed_500mb
97 97 93 90 80 72 71 68 67 52 50 48 44 41 40 40 31 27 28 19 28 29 27 26 25 24 31 35 37 36 36 33 32 36 39 42 49 54
95 97 95 90 84 79 74 69 68 68 57 45 44 47 43 37 35 34 28 20 27 29 27 26 27 30 30 30 29 32 35 42 48 51 54 57 60 61
99 95 94 87 83 80 74 69 69 66 64 63 58 50 45 40 41 34 32 27 28 34 30 29 30 32 32 30 30 33 39 43 47 47 49 53 55 59
102 97 90 89 82 77 72 68 66 67 64 63 60 55 44 44 40 34 29 29 29 30 27 28 27 26 27 28 29 33 36 39 44 47 50 54 56 56
99 96 93 87 80 74 71 70 64 66 57 52 56 56 54 42 38 36 33 32 31 29 27 24 23 22 25 29 32 33 36 40 44 46 50 54 53 54
95 90 86 87 80 67 72 65 70 52 51 52 51 51 50 42 40 35 35 33 30 25 22 21 22 25 26 30 34 35 36 39 44 48 49 51 55 59
89 86 76 79 72 71 67 65 60 66 63 44 55 56 48 43 40 41 41 34 27 24 23 24 25 25 27 32 31 34 39 36 40 46 50 53 54 52
85 76 77 75 68 68 61 63 53 63 59 57 60 52 47 42 41 43 42 35 29 29 27 25 23 25 28 29 34 34 33 36 42 48 50 52 53 52
76 70 75 78 75 68 66 55 54 60 49 51 49 52 44 43 43 46 39 33 31 25 22 24 20 19 26 32 32 32 28 40 45 50 50 56 53 57
69 70 79 77 73 64 51 56 58 58 56 47 44 43 40 39 39 33 32 31 27 24 21 18 16 17 25 30 33 24 37 40 46 46 57 56 54 58
71 73 81 77 69 67 56 58 57 58 50 48 47 46 44 44 39 35 30 27 24 23 19 21 18 16 21 29 28 28 41 47 42 52 54 61 61 60
75 79 78 72 70 61 59 52 65 59 61 60 53 48 49 47 40 33 28 26 22 22 23 21 15 13 10 20 24 41 42 40 49 50 53 54 57 60
84 74 67 68 63 53 50 61 58 59 63 57 53 53 50 42 33 29 26 24 25 23 18 14 12 14 16 21 29 36 35 43 46 47 44 53 55 53
75 72 75 68 57 52 61 54 51 66 66 61 56 54 46 37 33 31 29 26 23 17 11 11 15 17 23 28 33 34 37 39 47 42 48 53 49 49
71 71 66 59 62 62 61 59 72 70 66 62 55 48 41 37 37 34 29 25 19 14 11 13 18 23 26 30 36 38 45 40 39 44 50 52 52 49
67 71 71 70 69 70 74 77 73 68 63 58 54 48 46 43 39 32 27 21 15 12 13 18 22 25 26 30 35 35 37 39 45 50 51 52 50 47
75 75 80 82 85 87 86 83 77 71 66 59 54 51 49 45 40 34 27 21 16 15 19 20 23 26 26 29 30 33 38 40 48 50 53 55 53 49
83 89 90 94 97 94 91 88 81 75 69 62 56 54 50 47 41 36 29 22 19 19 21 20 21 23 26 27 28 33 38 46 47 50 52 59 59 53
90 92 99 100 102 99 95 90 85 79 69 63 62 59 53 48 42 34 28 22 20 22 22 21 23 24 25 25 28 28 41 44 48 48 50 54 60 58
96 98 102 103 105 101 92 90 88 81 75 71 67 62 57 49 41 35 28 22 20 22 22 21 22 23 24 25 24 24 35 41 44 49 52 51 52 54
100 103 107 107 101 95 90 90 86 83 82 78 72 65 59 50 42 34 26 21 20 21 21 19 18 20 22 26 28 30 25 33 38 44 49 53 54 59
105 102 101 102 100 96 95 91 89 87 83 77 72 67 58 48 41 32 24 20 19 20 18 17 17 18 20 22 24 29 32 28 28 31 33 36 39 42
105 106 106 105 103 99 96 94 92 88 82 76 74 66 56 48 40 31 24 21 19 17 15 14 14 16 18 20 23 26 30 30 30 28 24 29 30 32
Wind_Direction_500mb
256 255 254 256 255 255 253 252 254 250 257 262 258 265 251 257 260 259 269 289 283 278 279 280 283 264 260 262 266 269 274 274 274 274 271 276 278 279
259 258 256 253 254 254 252 252 252 254 249 257 251 249 242 243 249 257 260 261 274 272 271 276 278 280 279 273 265 265 267 268 268 272 278 279 281 284
257 256 254 251 250 252 251 250 250 250 251 250 247 257 241 239 244 251 253 255 259 264 265 272 276 280 283 278 274 266 265 271 277 282 285 289 290 292
256 255 253 247 247 248 249 249 248 248 248 244 256 230 244 228 242 238 250 251 245 251 257 267 271 278 281 276 278 275 275 279 283 288 293 292 292 296
254 255 255 246 246 244 247 248 248 245 238 248 245 248 238 229 233 245 240 236 233 243 256 261 275 274 274 275 274 278 282 286 290 290 293 297 301 303
256 257 252 249 246 245 248 244 244 237 238 233 245 235 217 234 225 231 226 223 226 240 250 254 262 270 271 277 282 286 289 294 295 294 300 303 303 304
257 258 255 251 245 243 241 241 239 244 224 243 233 229 241 222 234 228 214 214 223 239 239 247 263 272 278 281 287 289 294 292 295 304 308 305 306 311
253 256 252 248 242 242 238 247 237 237 233 241 230 242 226 227 227 216 211 211 215 230 234 255 268 271 278 282 290 292 291 299 305 305 304 308 312 309
252 252 250 245 237 232 230 223 226 225 226 231 240 233 227 230 223 211 211 218 226 230 238 253 262 273 275 284 289 288 300 304 305 306 307 309 308 311
256 256 250 241 237 230 228 222 215 218 228 235 221 224 223 223 211 210 214 219 231 238 240 258 262 255 276 288 288 283 300 301 306 305 309 309 312 311
252 247 246 239 233 221 229 219 226 221 216 214 208 203 202 200 201 207 215 226 229 239 242 247 249 255 277 280 271 287 298 304 299 309 311 308 307 309
244 241 235 234 231 222 216 231 224 220 213 201 196 194 192 194 201 213 223 229 230 236 230 238 254 273 276 276 250 288 298 298 307 312 309 307 312 316
243 232 229 215 212 226 235 224 222 215 199 196 191 191 194 196 205 213 216 221 233 233 225 246 276 293 295 282 286 295 299 306 313 316 311 313 319 321
235 234 214 214 218 221 215 211 212 203 194 192 193 192 194 198 205 209 214 216 221 228 236 258 277 292 299 304 306 305 310 315 315 315 316 316 319 318
233 227 218 224 218 212 206 206 201 196 195 194 193 193 193 199 204 206 207 210 211 219 247 273 290 303 310 314 311 316 319 320 315 316 320 320 325 326
224 223 214 211 211 205 196 195 196 199 200 198 192 191 196 196 199 202 204 209 217 239 264 285 299 309 315 314 314 317 317 319 319 324 320 323 329 330
208 208 208 204 197 195 197 197 195 196 195 192 194 195 194 194 195 197 196 209 226 250 270 289 301 308 312 316 314 314 315 317 320 324 326 326 331 335
212 212 205 201 199 198 199 194 192 193 193 193 195 197 196 193 191 190 196 208 231 253 269 285 292 300 314 319 314 315 318 321 325 328 328 328 330 337
220 218 210 205 203 201 200 197 195 194 196 194 196 193 190 188 186 190 199 216 237 256 270 284 296 308 316 326 324 318 319 322 326 328 329 329 328 332
224 219 213 208 206 203 199 199 199 194 193 194 194 191 187 187 186 193 205 218 240 259 275 288 302 314 321 322 323 327 319 323 326 329 329 329 328 329
216 214 214 211 208 206 204 202 199 197 194 192 190 189 186 184 187 195 206 221 242 258 269 287 304 313 318 322 328 332 329 330 332 329 328 329 333 334
220 219 217 214 210 208 204 200 197 196 193 190 189 187 184 185 188 195 206 224 241 253 270 287 300 314 322 323 322 325 332 335 332 330 331 334 332 320
224 221 219 217 214 208 203 199 198 195 192 190 189 187 185 186 190 193 204 220 237 253 266 277 295 308 314 318 322 328 332 336 339 339 344 343 342 340
Wind_Speed_850mb
97 97 93 90 80 72 71 68 67 52 50 48 44 41 40 40 31 27 28 19 28 29 27 26 25 24 31 35 37 36 36 33 32 36 39 42 49 54
95 97 95 90 84 79 74 69 68 68 57 45 44 47 43 37 35 34 28 20 27 29 27 26 27 30 30 30 29 32 35 42 48 51 54 57 60 61
99 95 94 87 83 80 74 69 69 66 64 63 58 50 45 40 41 34 32 27 28 34 30 29 30 32 32 30 30 33 39 43 47 47 49 53 55 59
102 97 90 89 82 77 72 68 66 67 64 63 60 55 44 44 40 34 29 29 29 30 27 28 27 26 27 28 29 33 36 39 44 47 50 54 56 56
99 96 93 87 80 74 71 70 64 66 57 52 56 56 54 42 38 36 33 32 31 29 27 24 23 22 25 29 32 33 36 40 44 46 50 54 53 54
95 90 86 87 80 67 72 65 70 52 51 52 51 51 50 42 40 35 35 33 30 25 22 21 22 25 26 30 34 35 36 39 44 48 49 51 55 59
89 86 76 79 72 71 67 65 60 66 63 44 55 56 48 43 40 41 41 34 27 24 23 24 25 25 27 32 31 34 39 36 40 46 50 53 54 52
85 76 77 75 68 68 61 63 53 63 59 57 60 52 47 42 41 43 42 35 29 29 27 25 23 25 28 29 34 34 33 36 42 48 50 52 53 52
76 70 75 78 75 68 66 55 54 60 49 51 49 52 44 43 43 46 39 33 31 25 22 24 20 19 26 32 32 32 28 40 45 50 50 56 53 57
69 70 79 77 73 64 51 56 58 58 56 47 44 43 40 39 39 33 32 31 27 24 21 18 16 17 25 30 33 24 37 40 46 46 57 56 54 58
71 73 81 77 69 67 56 58 57 58 50 48 47 46 44 44 39 35 30 27 24 23 19 21 18 16 21 29 28 28 41 47 42 52 54 61 61 60
75 79 78 72 70 61 59 52 65 59 61 60 53 48 49 47 40 33 28 26 22 22 23 21 15 13 10 20 24 41 42 40 49 50 53 54 57 60
84 74 67 68 63 53 50 61 58 59 63 57 53 53 50 42 33 29 26 24 25 23 18 14 12 14 16 21 29 36 35 43 46 47 44 53 55 53
75 72 75 68 57 52 61 54 51 66 66 61 56 54 46 37 33 31 29 26 23 17 11 11 15 17 23 28 33 34 37 39 47 42 48 53 49 49
71 71 66 59 62 62 61 59 72 70 66 62 55 48 41 37 37 34 29 25 19 14 11 13 18 23 26 30 36 38 45 40 39 44 50 52 52 49
67 71 71 70 69 70 74 77 73 68 63 58 54 48 46 43 39 32 27 21 15 12 13 18 22 25 26 30 35 35 37 39 45 50 51 52 50 47
75 75 80 82 85 87 86 83 77 71 66 59 54 51 49 45 40 34 27 21 16 15 19 20 23 26 26 29 30 33 38 40 48 50 53 55 53 49
83 89 90 94 97 94 91 88 81 75 69 62 56 54 50 47 41 36 29 22 19 19 21 20 21 23 26 27 28 33 38 46 47 50 52 59 59 53
90 92 99 100 102 99 95 90 85 79 69 63 62 59 53 48 42 34 28 22 20 22 22 21 23 24 25 25 28 28 41 44 48 48 50 54 60 58
96 98 102 103 105 101 92 90 88 81 75 71 67 62 57 49 41 35 28 22 20 22 22 21 22 23 24 25 24 24 35 41 44 49 52 51 52 54
100 103 107 107 101 95 90 90 86 83 82 78 72 65 59 50 42 34 26 21 20 21 21 19 18 20 22 26 28 30 25 33 38 44 49 53 54 59
105 102 101 102 100 96 95 91 89 87 83 77 72 67 58 48 41 32 24 20 19 20 18 17 17 18 20 22 24 29 32 28 28 31 33 36 39 42
105 106 106 105 103 99 96 94 92 88 82 76 74 66 56 48 40 31 24 21 19 17 15 14 14 16 18 20 23 26 30 30 30 28 24 29 30 32
Wind_Direction_850mb
256 255 254 256 255 255 253 252 254 250 257 262 258 265 251 257 260 259 269 289 283 278 279 280 283 264 260 262 266 269 274 274 274 274 271 276 278 279
259 258 256 253 254 254 252 252 252 254 249 257 251 249 242 243 249 257 260 261 274 272 271 276 278 280 279 273 265 265 267 268 268 272 278 279 281 284
257 256 254 251 250 252 251 250 250 250 251 250 247 257 241 239 244 251 253 255 259 264 265 272 276 280 283 278 274 266 265 271 277 282 285 289 290 292
256 255 253 247 247 248 249 249 248 248 248 244 256 230 244 228 242 238 250 251 245 251 257 267 271 278 281 276 278 275 275 279 283 288 293 292 292 296
254 255 255 246 246 244 247 248 248 245 238 248 245 248 238 229 233 245 240 236 233 243 256 261 275 274 274 275 274 278 282 286 290 290 293 297 301 303
256 257 252 249 246 245 248 244 244 237 238 233 245 235 217 234 225 231 226 223 226 240 250 254 262 270 271 277 282 286 289 294 295 294 300 303 303 304
257 258 255 251 245 243 241 241 239 244 224 243 233 229 241 222 234 228 214 214 223 239 239 247 263 272 278 281 287 289 294 292 295 304 308 305 306 311
253 256 252 248 242 242 238 247 237 237 233 241 230 242 226 227 227 216 211 211 215 230 234 255 268 271 278 282 290 292 291 299 305 305 304 308 312 309
252 252 250 245 237 232 230 223 226 225 226 231 240 233 227 230 223 211 211 218 226 230 238 253 262 273 275 284 289 288 300 304 305 306 307 309 308 311
256 256 250 241 237 230 228 222 215 218 228 235 221 224 223 223 211 210 214 219 231 238 240 258 262 255 276 288 288 283 300 301 306 305 309 309 312 311
252 247 246 239 233 221 229 219 226 221 216 214 208 203 202 200 201 207 215 226 229 239 242 247 249 255 277 280 271 287 298 304 299 309 311 308 307 309
244 241 235 234 231 222 216 231 224 220 213 201 196 194 192 194 201 213 223 229 230 236 230 238 254 273 276 276 250 288 298 298 307 312 309 307 312 316
243 232 229 215 212 226 235 224 222 215 199 196 191 191 194 196 205 213 216 221 233 233 225 246 276 293 295 282 286 295 299 306 313 316 311 313 319 321
235 234 214 214 218 221 215 211 212 203 194 192 193 192 194 198 205 209 214 216 221 228 236 258 277 292 299 304 306 305 310 315 315 315 316 316 319 318
233 227 218 224 218 212 206 206 201 196 195 194 193 193 193 199 204 206 207 210 211 219 247 273 290 303 310 314 311 316 319 320 315 316 320 320 325 326
224 223 214 211 211 205 196 195 196 199 200 198 192 191 196 196 199 202 204 209 217 239 264 285 299 309 315 314 314 317 317 319 319 324 320 323 329 330
208 208 208 204 197 195 197 197 195 196 195 192 194 195 194 194 195 197 196 209 226 250 270 289 301 308 312 316 314 314 315 317 320 324 326 326 331 335
212 212 205 201 199 198 199 194 192 193 193 193 195 197 196 193 191 190 196 208 231 253 269 285 292 300 314 319 314 315 318 321 325 328 328 328 330 337
220 218 210 205 203 201 200 197 195 194 196 194 196 193 190 188 186 190 199 216 237 256 270 284 296 308 316 326 324 318 319 322 326 328 329 329 328 332
224 219 213 208 206 203 199 199 199 194 193 194 194 191 187 187 186 193 205 218 240 259 275 288 302 314 321 322 323 327 319 323 326 329 329 329 328 329
216 214 214 211 208 206 204 202 199 197 194 192 190 189 186 184 187 195 206 221 242 258 269 287 304 313 318 322 328 332 329 330 332 329 328 329 333 334
220 219 217 214 210 208 204 200 197 196 193 190 189 187 184 185 188 195 206 224 241 253 270 287 300 314 322 323 322 325 332 335 332 330 331 334 332 320
224 221 219 217 214 208 203 199 198 195 192 190 189 187 185 186 190 193 204 220 237 253 266 277 295 308 314 318 322 328 332 336 339 339 344 343 342 340